Wind_Speed
37 36 36 35 35 34 34 33 33 33 32 32 31 31 30 28 27 26 24 22 20 18 17 16 15 14 14 14 13 12 10 8 7 7 7 9 12 16 21 26 30 34 37 40 42 44 45 45 45 44 44 44 43 43 42 41 40 40 39 39 38 35 33 32 30 29 29 26 25 25 25 25 28 29 31 33 33 31 32 32 33 32 32 31 30 29 29 30
39 39 38 38 37 37 36 36 36 36 35 35 34 33 32 31 29 28 27 25 23 22 20 19 18 17 16 16 16 15 14 12 10 9 8 8 9 12 16 20 25 29 33 36 39 41 42 44 45 46 46 45 45 45 44 43 43 42 41 39 38 36 34 34 32 31 32 31 30 30 29 29 30 32 32 33 32 32 32 31 30 29 27 27 26 25 27 28
41 41 41 41 40 39 39 39 39 38 38 38 37 36 35 33 32 30 29 27 26 25 23 22 21 20 19 19 18 18 17 16 14 12 11 11 9 10 12 15 19 23 28 32 35 38 40 41 43 44 45 46 46 46 46 45 44 44 42 40 39 37 36 36 34 34 34 34 34 33 33 31 31 33 33 32 33 33 31 28 26 26 25 25 23 25 26 27
44 44 44 43 43 42 42 42 42 41 41 40 39 39 37 36 34 32 31 29 28 27 26 25 24 23 22 21 21 21 20 19 17 15 15 14 11 10 11 12 14 18 22 26 30 34 37 39 41 42 43 44 45 46 46 46 45 45 44 42 40 38 38 38 38 37 36 36 36 35 34 32 32 32 31 31 30 28 26 24 24 24 24 23 23 25 26 26
46 46 46 46 46 45 45 45 44 44 44 43 42 41 40 38 37 35 33 32 31 30 29 28 27 25 25 25 24 24 23 22 21 20 19 16 14 13 12 12 12 14 17 20 24 28 32 36 38 40 41 42 43 44 45 44 44 45 45 43 41 41 40 40 40 40 39 38 38 36 34 33 31 28 27 27 24 22 21 21 22 23 23 23 24 26 26 26
48 48 48 48 48 48 48 48 47 47 46 46 45 44 43 41 40 38 37 35 33 32 31 31 30 28 27 27 26 27 26 24 25 24 21 19 18 16 14 14 13 13 14 16 19 22 26 30 34 37 39 41 42 43 43 43 44 45 45 43 43 43 42 41 40 40 40 39 38 36 33 31 28 26 25 22 19 18 19 20 21 22 22 23 24 25 25 27
50 50 50 50 50 50 50 50 50 49 49 48 47 46 45 44 43 41 40 38 36 35 34 33 32 31 30 30 29 29 28 28 28 25 23 24 23 20 18 16 15 14 14 14 15 17 20 24 27 31 35 38 39 40 41 43 43 44 44 43 43 43 42 41 40 39 39 38 37 34 31 28 26 24 22 18 17 18 18 19 20 20 21 22 24 24 25 26
52 52 53 52 52 52 52 52 52 51 51 50 50 48 47 46 46 44 43 41 39 38 36 35 35 33 33 32 32 31 31 31 29 27 28 27 26 24 22 20 19 17 16 15 15 16 18 20 23 26 29 32 35 37 38 40 41 41 42 42 42 42 41 39 37 37 37 36 34 30 27 25 22 19 17 15 17 18 19 20 19 18 19 21 23 23 24 25
54 54 54 54 54 54 54 54 53 53 52 52 51 51 49 48 47 46 45 43 42 40 38 38 37 36 35 35 35 34 33 33 31 31 32 29 29 28 26 24 22 20 19 18 17 17 17 17 19 21 22 26 29 32 35 36 37 38 38 39 39 38 37 36 35 34 34 32 29 26 22 21 18 16 15 15 17 18 18 19 18 17 18 19 20 22 22 22
56 56 56 56 56 56 56 55 55 55 54 54 53 53 51 50 49 48 47 45 44 42 40 40 38 38 37 37 38 35 35 36 34 34 34 32 31 31 30 29 27 25 23 21 19 18 17 17 17 18 19 22 24 26 29 31 32 33 34 34 33 33 33 33 32 31 31 30 27 25 22 21 18 16 15 14 16 18 17 17 17 17 17 17 18 19 20 21
58 58 58 58 58 57 57 57 57 57 56 55 55 54 53 52 51 50 49 47 46 44 42 41 41 40 39 40 40 36 37 39 37 36 36 35 34 33 34 33 31 29 27 25 23 21 19 18 18 18 20 21 20 21 23 24 26 28 29 29 29 29 29 29 28 28 29 29 28 26 23 21 18 16 15 14 15 16 16 16 16 17 17 17 17 17 18 20
59 59 59 60 60 59 59 59 59 58 58 57 57 56 55 54 52 52 50 49 48 46 45 43 43 42 41 43 41 36 39 42 40 37 37 37 36 36 36 36 34 32 31 29 27 25 23 21 20 21 21 20 19 20 21 21 23 24 25 25 26 26 26 26 26 27 28 28 27 25 22 20 18 16 15 15 15 15 15 15 16 17 17 17 16 15 16 17
61 60 61 61 61 61 61 61 60 60 60 59 58 58 57 55 54 53 52 51 50 49 48 46 45 44 44 46 42 38 42 44 42 40 39 39 39 39 39 37 37 36 35 33 31 29 27 25 24 24 22 20 21 22 21 22 22 22 22 23 23 24 24 24 25 25 25 26 25 23 21 20 18 17 16 15 14 14 14 15 16 16 16 16 15 14 14 15
62 62 62 62 62 62 62 62 62 62 61 60 60 59 59 57 55 55 54 53 52 51 50 48 47 46 46 48 43 40 44 45 44 43 41 41 41 41 41 40 39 39 38 37 35 33 31 29 28 26 24 24 25 23 22 23 22 21 21 22 22 23 23 23 23 24 24 24 23 22 21 20 19 18 17 15 14 14 14 14 15 15 14 14 13 13 13 14
64 64 64 64 64 64 64 64 63 63 63 62 62 61 61 59 57 57 56 55 54 54 53 51 50 48 49 50 45 42 46 47 47 45 42 41 41 43 43 42 42 41 40 40 38 37 35 33 32 30 29 29 26 24 25 24 22 22 22 23 24 23 23 23 23 24 24 24 23 22 21 20 19 18 18 16 15 14 14 14 14 13 12 13 13 12 13 14
66 67 66 66 67 66 66 66 66 66 65 65 64 64 63 62 61 59 59 58 57 56 55 53 52 51 51 52 48 45 47 49 48 46 44 44 44 45 45 44 44 43 43 42 41 40 38 37 36 35 33 31 29 28 28 26 24 25 26 26 25 24 23 23 24 24 24 24 24 23 22 21 19 19 18 17 16 15 15 15 13 12 12 12 12 12 13 14
70 70 70 69 69 69 69 69 69 68 68 68 67 67 66 65 64 62 62 61 60 59 57 56 54 53 53 54 51 48 48 50 50 49 48 47 47 47 47 47 46 45 45 43 43 42 41 40 39 38 37 34 33 31 30 29 29 30 30 28 26 25 24 24 25 25 24 25 25 23 21 20 19 20 19 18 17 17 15 13 12 12 11 11 12 13 13 14
73 73 73 73 73 73 72 72 72 71 71 71 70 69 69 68 67 65 65 64 63 62 60 58 56 55 55 56 55 52 51 52 52 52 51 50 49 48 48 49 48 47 46 45 45 44 43 43 41 40 39 37 36 35 34 36 36 34 33 31 28 27 26 26 27 26 26 26 24 23 22 21 21 21 21 20 19 18 16 13 12 12 11 11 13 13 13 14
77 78 78 77 77 77 76 76 75 75 75 74 74 73 72 71 70 68 67 67 66 64 62 60 58 58 59 59 59 56 54 53 53 54 54 52 52 50 50 50 49 48 47 47 47 46 46 45 42 41 41 41 41 41 42 42 39 36 35 33 30 29 28 28 27 27 27 26 26 25 24 23 23 23 23 21 20 19 17 15 14 13 12 13 13 12 13 14
82 82 82 82 82 81 81 80 80 79 79 78 78 77 75 75 74 71 70 71 69 67 66 63 61 62 62 62 62 60 57 56 55 56 57 56 54 52 51 52 51 50 49 50 49 48 47 45 43 44 46 46 46 45 45 45 41 37 36 34 33 31 30 30 30 30 29 29 29 28 27 26 25 25 24 23 22 21 19 17 16 14 13 14 12 12 13 13
83 84 85 85 85 85 86 85 84 84 83 82 82 81 80 78 78 75 73 73 73 72 69 68 65 65 68 67 65 65 62 59 59 59 60 59 57 54 54 54 54 53 53 53 51 50 47 45 48 50 49 48 47 46 46 46 43 40 38 37 35 33 32 33 32 32 32 31 32 31 30 29 27 26 27 25 24 23 22 20 18 16 15 14 12 12 13 12
83 84 85 86 86 86 87 87 87 87 87 87 86 85 85 83 82 80 77 75 77 77 73 72 70 68 72 73 69 69 66 63 63 63 63 62 60 57 57 57 56 57 57 54 52 50 47 50 54 53 51 50 49 47 47 47 46 43 41 39 37 36 35 35 35 34 34 33 34 33 32 32 30 28 28 28 25 24 25 23 19 17 17 15 13 12 12 12
84 85 85 86 86 86 87 88 88 88 88 89 88 88 88 87 86 85 81 78 80 82 77 75 75 72 75 78 75 72 69 68 68 67 66 64 63 62 60 59 59 60 58 55 53 52 52 56 57 53 52 52 50 49 48 47 47 45 42 40 40 39 38 38 37 37 36 35 36 35 34 35 33 30 30 30 28 26 27 26 22 19 18 18 15 13 13 12
87 87 87 88 88 88 88 89 89 89 88 88 89 89 89 89 88 87 86 82 81 86 84 79 79 78 79 82 81 74 71 72 71 70 68 66 67 66 63 62 63 61 59 58 57 55 57 60 57 54 53 52 51 50 48 47 46 46 44 42 43 44 42 41 41 40 39 38 38 37 36 37 35 31 31 32 30 29 28 28 25 22 20 19 17 15 14 13
89 90 90 91 91 91 90 91 91 90 90 90 90 90 89 89 89 87 86 84 83 87 89 86 83 84 85 85 82 77 74 75 73 73 72 70 70 69 67 66 65 63 61 61 61 58 60 61 58 55 55 53 52 51 49 49 48 48 47 45 47 48 46 45 44 43 42 39 39 39 37 38 37 34 33 33 32 31 29 28 28 25 22 20 19 18 15 14
88 89 90 91 92 93 93 93 94 93 93 92 91 91 91 90 89 88 86 85 86 87 90 91 88 87 88 87 85 82 79 76 77 78 76 73 73 72 71 68 67 66 65 65 64 61 62 62 59 58 58 56 54 52 51 51 50 49 49 49 51 51 50 48 47 46 43 40 41 41 40 39 39 37 36 34 33 32 29 29 29 29 26 22 20 20 17 15
87 88 89 89 91 92 93 94 94 95 95 95 94 93 92 91 90 89 87 88 90 90 91 93 92 90 89 89 89 87 81 78 81 83 79 77 77 75 73 71 70 69 69 69 65 61 63 64 62 62 61 58 55 54 54 54 52 51 52 53 54 54 53 52 51 47 44 44 43 42 41 40 39 38 38 36 34 32 30 30 31 32 30 25 21 21 20 17
87 88 89 89 90 90 91 92 93 93 94 94 95 94 94 93 92 90 90 92 94 95 94 94 94 92 89 89 90 88 84 83 84 86 84 82 80 79 76 74 73 73 74 71 66 65 68 67 65 66 64 60 58 59 59 57 53 53 55 55 55 56 55 54 52 48 47 46 44 42 42 41 39 39 40 39 36 35 33 33 34 34 34 29 23 22 22 20
87 89 90 90 90 90 91 91 92 93 93 92 92 93 93 93 93 92 93 96 99 98 96 94 94 93 90 88 89 89 88 85 85 88 89 86 83 82 79 78 78 77 77 73 69 71 73 69 68 69 65 61 61 63 62 58 55 56 58 56 56 57 55 55 53 50 49 46 44 43 43 43 41 41 42 41 39 39 38 37 36 35 37 34 27 24 24 23
89 90 91 91 92 91 91 91 92 93 93 93 92 92 91 91 91 92 94 98 103 102 98 95 93 93 93 91 89 89 88 87 86 88 90 88 86 84 83 83 82 80 78 76 73 74 74 72 71 69 65 63 64 64 62 60 59 60 60 58 57 56 56 56 53 52 50 46 45 45 46 46 43 42 45 43 43 45 43 40 36 35 38 38 31 26 26 25
90 91 91 92 92 93 93 92 92 93 93 93 94 93 92 91 89 90 92 97 102 102 98 95 93 93 93 92 90 90 90 90 89 89 90 90 88 86 86 86 85 82 80 77 74 75 77 75 71 68 67 66 66 65 63 61 61 62 61 59 58 57 57 56 54 53 50 45 45 48 50 50 45 45 48 47 47 48 47 43 39 36 38 41 36 30 28 27
91 92 92 93 93 93 94 93 93 92 92 92 93 93 93 92 91 91 93 96 99 98 94 91 92 93 93 92 92 92 92 93 93 92 92 92 90 87 86 85 85 83 80 76 76 78 78 75 72 71 70 68 67 66 65 63 63 62 62 61 59 58 57 55 55 53 49 47 49 53 56 53 49 49 50 51 52 51 49 49 44 38 38 42 40 34 31 28
92 93 94 93 93 94 94 94 93 92 92 91 91 91 91 91 91 92 94 96 96 94 90 86 87 90 93 94 96 96 96 96 97 96 96 95 93 89 87 86 86 84 80 79 82 81 79 78 76 74 71 69 69 68 67 66 65 64 64 63 62 61 59 57 56 55 52 52 55 59 60 54 50 51 52 54 55 52 51 52 48 39 38 43 42 37 34 30
93 94 95 95 94 94 94 94 93 92 91 90 89 89 89 88 88 89 92 94 93 92 90 87 86 88 90 94 98 101 102 101 101 100 99 98 96 92 89 88 87 85 83 85 86 83 81 81 77 72 71 72 72 71 70 70 69 68 67 66 66 63 61 60 59 58 58 59 61 63 60 53 52 54 56 58 57 53 51 53 51 41 38 43 43 39 38 34
92 94 95 96 95 94 94 94 93 92 91 90 90 88 87 86 84 85 88 91 91 90 90 90 90 91 90 93 100 103 103 104 104 102 99 97 95 93 91 90 89 89 89 89 86 83 82 80 76 76 78 78 76 74 73 73 72 70 70 69 65 63 62 63 62 62 63 63 63 62 58 54 55 58 59 58 55 53 50 52 52 43 38 43 43 41 42 38
90 91 92 94 94 93 93 93 92 91 90 90 90 88 87 85 82 82 85 88 88 88 88 91 94 95 94 96 100 99 98 101 103 103 100 98 95 94 93 92 93 94 93 91 87 85 84 81 79 82 82 80 78 77 76 75 72 70 69 65 62 64 67 65 64 65 65 63 60 58 56 56 56 57 57 55 53 53 50 50 51 44 40 42 41 42 43 42
86 86 86 88 90 89 88 88 87 87 87 87 87 86 85 84 81 80 82 85 86 85 86 91 96 97 96 98 98 95 94 97 100 101 101 102 100 99 97 96 97 98 99 96 93 91 88 84 84 85 82 79 79 80 79 77 75 71 67 64 66 69 68 65 65 66 64 59 57 56 56 56 54 54 56 54 51 52 51 50 49 45 42 40 40 42 43 44
79 78 78 80 82 81 80 80 80 81 81 81 82 82 82 81 79 79 79 82 85 84 85 90 95 96 97 97 97 95 94 96 97 99 102 105 105 103 102 101 102 103 103 101 99 96 91 88 88 86 81 79 80 82 80 77 74 69 66 68 71 70 65 63 64 63 60 56 55 55 55 54 52 52 55 53 50 51 52 50 48 45 42 40 40 42 43 44
71 70 69 72 74 73 72 72 72 73 75 75 76 76 77 78 77 77 77 79 83 83 84 88 93 96 97 97 96 96 97 97 98 99 102 104 104 104 104 104 104 104 103 100 97 95 92 90 89 85 81 82 84 83 78 73 69 67 67 70 71 67 64 64 63 61 59 57 56 56 54 52 51 52 54 51 49 50 51 48 46 44 41 40 40 42 43 45
64 63 61 64 66 66 65 66 65 66 68 69 70 71 71 71 72 74 75 76 79 81 84 87 91 95 98 97 96 97 98 99 100 102 103 103 101 101 102 103 104 104 102 97 93 91 90 89 88 87 85 87 87 81 73 68 67 67 66 67 67 65 63 62 60 59 58 56 55 54 52 52 53 53 51 49 48 49 49 46 44 43 41 38 40 43 46 47
59 57 56 57 59 59 58 59 59 60 63 64 64 65 65 65 66 68 70 72 75 78 82 86 90 95 98 98 98 97 97 99 102 103 105 105 102 100 100 101 103 104 102 98 94 92 90 89 89 89 90 90 86 77 71 70 70 69 68 68 67 65 63 60 57 56 56 54 53 52 51 52 53 51 48 46 45 46 46 44 43 44 41 36 39 45 48 50
56 53 50 50 52 52 51 53 53 53 56 59 60 60 60 59 60 61 63 65 69 73 79 84 89 94 96 99 99 98 96 98 103 106 107 107 104 101 99 99 100 102 101 98 96 93 90 88 86 88 89 87 82 76 74 75 75 75 74 72 70 68 65 59 55 56 57 55 53 53 52 52 52 49 46 44 43 44 47 45 43 45 42 37 40 46 51 54
54 51 47 46 47 47 47 48 49 49 51 53 55 55 54 54 55 55 57 58 62 68 74 80 86 91 96 98 99 99 99 100 104 107 107 107 105 103 101 98 97 98 97 95 94 91 88 86 85 87 87 83 80 80 78 79 81 80 76 72 69 67 64 59 57 60 60 57 55 54 52 52 52 49 45 43 43 45 48 47 45 46 43 40 42 47 53 56
49 49 46 43 42 42 42 43 44 46 48 49 50 50 49 49 50 51 52 53 56 61 67 74 81 88 94 98 99 101 102 102 105 106 104 104 105 103 102 99 96 94 92 91 93 91 89 90 89 90 88 83 82 82 80 80 82 79 73 69 67 65 64 62 61 63 62 58 56 54 52 54 53 48 45 45 45 46 47 47 45 46 44 41 43 49 55 58
43 45 46 44 41 39 38 39 39 41 43 45 46 46 45 45 45 46 48 48 51 56 61 67 75 83 91 97 100 102 104 104 104 103 101 103 105 103 102 100 97 93 90 90 92 91 90 92 91 91 89 85 83 82 78 76 76 74 71 69 68 68 68 66 63 63 61 58 55 54 54 55 52 48 47 48 46 44 43 46 46 46 45 42 43 49 55 58
38 39 41 43 42 40 38 37 37 37 38 40 42 42 42 42 41 42 43 44 47 52 57 62 69 79 87 94 99 102 104 104 103 102 101 102 104 103 103 101 98 94 91 90 91 89 90 91 90 89 89 86 83 81 78 74 74 74 72 70 69 69 69 67 65 62 60 57 55 54 55 54 50 49 50 48 44 40 40 46 47 45 44 43 43 49 56 58
36 35 35 37 38 38 37 35 35 35 35 35 36 37 37 38 38 38 39 40 43 48 54 58 64 73 81 89 96 100 103 103 102 101 102 102 103 103 102 101 99 95 93 91 89 87 88 90 89 88 89 88 85 84 82 81 80 78 74 70 69 68 67 65 62 61 60 58 56 54 55 54 49 50 51 46 40 38 40 46 46 41 43 45 45 49 55 58
39 36 35 34 35 35 35 34 33 32 32 31 32 32 33 34 34 34 35 36 39 45 50 55 60 68 75 83 91 97 102 103 101 101 103 103 103 103 101 100 100 96 93 91 89 87 87 89 89 89 88 87 87 87 87 84 81 79 76 72 69 67 66 62 60 61 61 59 57 56 56 55 51 52 50 44 40 40 41 44 42 39 42 45 46 49 53 57
41 40 38 36 35 34 33 33 31 30 29 28 28 28 29 30 30 30 31 33 36 42 47 51 56 63 70 77 85 92 98 101 101 101 103 104 104 104 101 100 100 97 93 91 89 87 86 88 88 87 86 85 85 87 86 82 78 76 75 73 69 68 66 63 62 63 62 61 60 57 57 56 54 52 49 45 44 42 42 42 40 38 40 44 46 49 51 55
43 42 40 38 36 34 32 31 30 28 27 25 25 25 25 26 26 25 27 30 34 39 44 48 53 59 65 72 80 86 92 97 99 101 104 106 106 104 101 100 101 98 93 91 90 88 87 87 87 85 83 83 84 84 83 80 77 76 75 73 71 68 66 65 65 65 64 63 62 60 59 58 54 51 50 49 47 43 40 41 41 40 42 43 45 48 50 53
45 44 42 40 38 36 33 31 29 27 26 24 23 23 23 23 22 21 24 28 31 36 41 45 49 55 61 68 75 80 84 91 97 100 103 107 107 105 101 100 100 97 93 91 90 88 87 88 87 84 82 83 84 83 82 79 78 76 75 73 70 68 67 67 66 65 65 64 63 63 61 58 54 52 52 51 49 43 40 41 42 43 45 44 43 45 49 52
48 47 44 42 40 37 35 33 30 27 25 23 22 21 21 21 19 19 21 25 28 32 37 42 46 51 57 63 70 74 78 86 94 97 102 107 108 105 101 100 100 97 93 91 89 88 88 88 87 84 82 84 84 82 81 80 76 73 72 72 71 71 71 70 68 67 67 65 64 63 62 60 57 55 55 54 49 44 40 41 43 45 47 46 44 43 46 50
Wind_Direction
252 253 253 253 254 254 255 255 256 257 259 260 261 262 263 263 263 262 263 263 263 263 263 260 255 253 253 253 253 251 246 238 237 232 220 217 220 220 220 220 220 221 222 223 224 226 227 228 228 229 230 232 234 236 238 238 238 238 239 242 244 247 248 250 253 253 254 262 267 266 268 274 277 281 286 292 295 297 299 299 300 302 304 306 307 306 306 306
253 253 253 254 254 255 255 255 256 257 258 259 260 261 261 262 261 261 261 262 263 263 262 261 257 253 251 251 251 250 248 242 237 237 233 224 219 220 222 221 221 222 222 223 223 224 226 227 228 229 229 229 231 233 236 237 239 240 240 241 243 245 247 249 251 255 258 261 265 268 270 274 279 283 287 291 293 295 298 300 300 302 304 307 308 310 311 309
253 254 254 254 254 255 255 256 257 258 258 259 260 260 261 261 261 260 260 260 262 263 262 260 258 256 252 250 250 249 247 244 239 237 238 234 224 219 219 221 221 221 222 222 223 224 224 226 227 229 230 230 230 231 233 235 237 239 241 241 243 245 248 250 253 257 261 263 265 267 270 275 280 284 286 288 289 294 297 298 300 301 304 308 310 313 315 315
254 254 255 255 255 255 256 257 257 258 259 260 261 261 261 261 261 260 259 259 260 261 262 261 258 256 254 251 249 248 246 244 242 238 237 237 232 227 217 216 219 220 221 221 222 224 224 225 225 227 229 230 232 232 233 234 236 238 240 242 244 245 248 251 254 257 260 263 264 265 269 274 279 283 286 286 286 292 296 297 298 301 305 309 310 314 319 318
255 255 255 255 255 256 256 257 258 258 260 260 261 262 262 262 262 261 260 258 259 260 261 261 258 256 255 253 250 249 246 244 244 239 238 237 234 233 226 219 217 216 218 220 220 221 223 224 225 225 227 228 230 232 234 235 236 237 240 241 243 245 247 249 252 255 258 260 262 264 268 272 275 278 284 287 288 291 295 295 296 299 304 306 310 315 318 314
256 256 257 257 256 256 257 257 258 259 259 260 261 262 263 263 263 262 261 259 258 259 260 260 258 256 255 254 251 249 246 244 243 240 239 239 235 233 231 228 224 218 215 216 218 219 221 222 224 226 226 227 228 230 231 232 233 235 238 239 241 242 244 247 249 252 255 257 260 262 264 268 269 272 279 286 288 290 293 294 296 301 303 306 311 317 316 312
257 258 258 258 258 257 258 258 258 259 260 260 260 261 262 262 263 262 262 261 260 259 259 259 257 255 255 254 252 250 247 244 243 242 239 240 238 234 231 230 230 226 218 214 216 216 218 220 222 224 226 226 227 228 229 231 232 234 236 237 239 240 242 244 247 250 252 254 256 258 260 262 264 270 276 282 286 289 293 294 298 303 306 310 318 322 320 317
259 259 259 259 259 259 258 259 259 260 260 261 261 261 261 261 262 262 262 261 261 260 259 258 257 255 254 254 252 250 249 245 243 243 241 238 239 237 232 228 228 230 226 218 214 212 215 217 219 222 224 226 226 227 228 230 231 233 235 236 237 239 241 242 244 247 249 250 252 254 255 255 259 269 277 282 287 291 294 297 302 307 311 316 322 324 323 323
260 260 260 260 260 260 259 259 259 260 260 261 261 261 261 261 261 261 261 260 259 259 259 258 257 256 254 254 252 250 250 247 242 242 241 238 239 239 236 231 227 228 230 226 219 216 216 215 219 221 222 225 226 226 226 227 229 231 233 235 236 237 239 239 239 241 245 246 245 245 246 249 255 264 271 278 286 289 294 301 308 312 315 318 322 323 323 327
261 261 261 261 261 260 260 260 260 260 260 260 261 261 261 261 260 260 259 259 258 257 257 257 257 256 255 254 251 249 251 248 242 241 241 239 238 238 238 235 231 226 227 229 227 225 221 217 218 218 219 221 223 225 227 227 227 229 230 232 233 234 236 236 234 235 238 238 237 239 243 250 254 254 261 272 281 287 293 303 309 311 315 316 319 320 322 330
261 261 261 261 261 261 261 261 260 261 260 260 260 260 260 260 260 260 259 258 257 256 255 255 256 256 256 254 251 248 250 248 242 241 241 239 238 238 238 236 234 230 227 227 229 229 227 225 222 219 220 219 218 221 223 224 225 226 228 229 229 230 231 231 230 230 231 232 235 241 245 249 249 249 258 268 276 284 293 303 308 310 312 315 321 320 322 334
262 261 261 261 261 261 261 261 261 261 261 261 260 260 260 259 259 259 258 258 257 256 255 254 255 256 256 255 251 248 249 247 243 241 241 240 238 238 238 236 236 234 231 228 228 229 228 229 229 228 227 223 218 218 216 217 219 221 222 224 225 225 227 228 227 227 227 230 235 240 241 242 245 249 258 266 274 283 292 304 310 311 313 316 325 325 324 338
262 262 261 261 261 261 261 260 260 260 260 260 260 260 259 258 258 258 257 256 256 256 255 254 254 255 256 254 250 248 248 247 244 240 239 240 239 238 238 237 236 235 234 231 228 229 228 228 230 232 232 231 226 221 218 216 215 215 216 218 220 219 221 221 222 223 224 228 231 233 235 238 245 252 258 264 273 283 292 304 310 313 317 317 326 332 330 341
262 262 262 261 261 261 260 260 260 260 260 260 259 259 259 258 257 257 256 255 255 255 255 255 255 254 255 253 250 247 247 246 243 240 238 239 239 239 238 237 236 235 235 234 232 230 229 229 230 231 233 233 231 227 226 224 220 218 218 218 218 217 216 217 218 220 222 227 230 231 235 241 248 254 258 264 271 280 291 302 308 311 315 313 320 335 337 342
263 262 262 261 261 261 260 260 260 259 259 259 258 258 258 257 257 257 256 255 255 254 254 255 255 254 254 253 249 246 246 245 243 240 238 238 238 238 238 237 236 236 234 234 234 232 230 230 231 231 231 232 234 234 235 232 229 227 226 224 222 220 218 219 221 221 223 228 232 234 238 245 251 255 259 264 271 280 288 296 303 304 305 307 315 328 337 343
263 263 262 262 261 261 260 260 260 259 259 258 258 257 257 257 256 256 256 255 255 254 254 254 255 254 253 252 248 244 244 245 244 241 238 236 236 237 237 237 236 236 235 234 234 234 232 231 232 233 232 233 234 235 237 237 235 234 232 229 227 226 225 227 228 227 228 231 234 236 241 247 252 258 262 267 273 277 283 290 296 298 301 307 314 324 332 340
264 263 262 262 261 261 260 260 260 259 259 258 258 257 257 257 256 255 255 255 255 254 254 254 254 253 252 251 248 244 242 243 243 241 238 235 235 236 237 237 237 236 236 235 235 235 234 232 232 234 235 234 234 234 236 237 234 234 233 231 230 230 229 232 234 234 235 237 239 241 246 251 256 261 264 267 270 273 276 282 290 298 302 305 313 322 326 333
265 264 263 262 262 261 261 260 260 259 259 258 258 257 257 257 256 255 255 254 253 253 253 252 252 252 251 250 248 243 240 241 242 241 239 236 235 235 236 237 236 237 236 236 236 235 235 234 232 234 236 236 236 236 236 233 231 231 234 233 233 233 233 235 238 240 241 243 246 249 251 254 257 260 263 265 268 272 272 271 278 291 294 293 304 311 311 317
266 265 264 263 263 262 261 260 260 259 259 259 258 257 256 256 256 255 255 254 253 252 251 251 250 250 249 249 247 244 242 241 241 242 241 238 235 234 236 237 236 236 237 236 236 235 234 235 235 235 236 235 234 234 235 233 230 231 235 236 236 237 238 239 242 244 246 248 250 252 252 253 256 259 262 264 267 270 270 269 273 281 283 284 295 298 292 299
266 265 265 264 263 262 262 261 260 260 259 259 258 257 257 256 256 255 255 255 254 252 251 249 249 250 249 248 248 246 242 241 241 242 242 239 237 234 235 237 236 236 236 236 236 235 234 235 237 237 235 235 234 235 237 236 233 233 236 238 238 239 241 242 243 245 247 249 250 251 252 253 255 259 261 263 265 267 266 267 269 273 276 279 289 293 290 294
266 265 265 264 263 263 262 261 260 260 259 258 258 258 257 256 256 255 254 255 255 253 252 250 248 249 250 247 247 246 243 241 241 241 242 241 238 235 234 235 236 235 235 235 235 235 235 235 237 237 236 236 235 236 238 239 237 236 238 239 240 241 243 244 244 245 247 249 250 251 253 253 253 256 259 260 262 265 265 265 266 268 270 273 279 287 291 294
266 265 265 264 263 263 262 261 260 260 259 258 257 257 257 256 255 254 254 254 255 253 252 251 249 248 250 248 245 246 245 243 242 241 241 242 240 237 235 235 235 235 235 235 236 236 235 236 236 235 236 237 237 237 238 240 239 237 239 241 242 243 244 245 245 245 247 249 250 251 252 252 251 252 256 258 259 262 264 264 264 263 264 266 268 276 284 288
266 265 265 264 263 263 262 261 261 260 259 258 257 257 256 256 255 254 253 252 254 254 251 251 250 248 249 249 245 244 245 244 243 242 241 242 242 239 237 236 235 236 236 235 235 235 235 237 236 235 236 237 238 239 239 240 240 239 240 242 243 243 244 244 244 244 244 246 248 249 250 252 251 252 254 256 256 257 262 264 263 260 261 262 262 264 271 277
266 266 265 264 263 262 262 261 260 259 259 258 258 257 256 255 255 254 253 252 252 254 252 249 249 248 247 247 246 244 244 245 244 244 243 242 242 241 238 238 237 235 235 236 234 234 236 238 237 236 237 238 239 240 241 243 243 242 241 243 244 243 242 243 243 244 243 244 248 249 250 253 253 252 253 255 256 255 260 265 264 260 258 260 260 258 260 268
266 265 265 264 264 263 262 261 260 260 259 257 257 257 256 255 255 253 253 252 250 251 252 249 246 247 246 247 247 246 244 244 245 244 243 242 242 242 239 238 238 236 235 236 234 233 236 238 237 237 238 238 239 240 240 241 242 242 241 241 244 243 241 242 243 243 244 244 247 249 249 252 253 252 252 253 256 258 259 262 263 261 257 256 258 257 255 260
266 265 264 264 263 263 261 261 260 259 259 258 256 256 255 255 254 253 252 251 250 249 250 249 246 245 246 247 246 245 244 244 245 244 243 242 242 242 240 239 239 238 236 235 235 234 237 238 237 237 237 237 238 239 240 240 240 241 240 240 242 242 241 241 242 243 244 244 245 247 249 251 254 255 254 254 256 259 260 260 261 261 257 252 253 256 254 254
267 266 265 264 263 263 262 261 260 259 258 258 257 256 255 254 253 253 252 250 249 247 247 248 247 245 244 246 246 245 244 243 244 244 243 242 241 241 241 240 239 239 237 236 235 235 238 237 236 235 236 236 237 239 239 239 239 240 240 240 241 242 242 242 242 243 245 245 245 248 250 252 255 256 257 256 255 255 256 256 257 258 259 254 248 252 253 251
268 268 267 265 264 264 263 263 261 260 258 257 257 256 255 254 253 252 251 250 248 247 245 245 247 246 245 245 247 246 244 242 243 244 243 241 241 241 240 240 239 238 238 237 235 235 236 236 235 234 234 234 235 237 237 238 238 239 241 241 241 243 243 243 243 244 245 247 249 251 252 253 254 254 255 254 253 252 250 251 253 257 260 258 249 247 250 250
270 269 268 267 266 264 264 263 263 262 260 259 257 256 254 253 252 251 250 249 249 247 245 244 245 247 246 245 245 246 244 242 242 244 244 243 242 242 241 240 239 238 238 237 235 235 236 236 235 235 234 233 234 236 237 238 238 239 241 241 241 243 244 245 244 244 245 247 250 251 250 251 250 251 252 252 252 251 248 247 250 254 259 258 252 246 247 247
272 271 270 270 269 267 265 264 263 262 261 260 259 257 255 253 252 250 249 249 248 247 246 245 244 245 246 244 244 244 245 244 242 242 244 243 242 241 240 239 239 238 239 238 236 237 238 237 236 236 235 234 235 236 237 237 238 239 241 242 243 244 245 246 246 246 247 248 250 251 248 247 246 248 250 251 251 251 250 247 246 249 256 258 254 248 246 246
275 274 273 272 272 271 269 267 265 263 262 261 260 258 256 254 252 250 249 248 248 247 245 244 244 244 244 245 244 243 243 243 242 241 242 243 241 240 240 240 240 239 239 239 239 239 239 238 237 237 236 235 236 237 237 237 238 240 242 243 244 245 246 247 248 248 249 250 250 249 247 245 243 245 248 249 250 251 252 249 244 243 250 257 255 249 246 246
277 276 275 275 274 273 272 271 269 267 265 263 261 259 257 255 253 251 249 248 248 248 246 244 244 244 244 244 243 242 241 241 240 239 239 240 240 239 239 240 240 239 238 239 238 238 239 239 238 237 236 236 237 238 239 239 240 242 243 245 246 247 247 248 249 249 248 247 246 245 245 244 243 244 246 248 250 251 252 251 247 241 244 253 256 252 247 245
279 278 277 277 276 275 274 273 271 270 268 266 263 261 258 256 254 251 250 249 248 249 248 245 243 243 243 243 242 242 240 239 238 237 236 237 237 237 237 238 238 238 236 235 235 235 235 236 236 235 236 237 238 238 239 240 240 241 243 244 244 245 245 245 245 245 244 242 242 243 245 246 247 248 248 248 249 250 251 254 253 248 243 249 253 253 249 245
280 279 279 278 277 276 275 274 273 272 270 268 266 263 260 257 254 252 250 249 248 247 246 245 242 240 240 241 240 240 239 238 237 236 235 235 235 234 234 235 236 237 236 234 234 234 234 234 235 234 235 236 236 237 238 238 237 238 238 239 239 240 240 241 241 241 240 239 241 244 247 248 249 249 247 247 249 251 252 255 257 254 247 248 250 251 250 244
280 280 280 279 278 277 276 275 274 272 271 269 267 265 262 259 255 252 250 249 247 245 244 243 241 238 236 236 237 237 237 237 238 237 236 236 236 234 233 233 233 234 234 234 234 234 234 234 234 233 232 232 232 233 234 235 235 236 237 238 239 239 239 240 240 240 240 240 242 246 248 249 248 249 249 251 253 253 252 254 257 255 250 249 250 248 247 244
281 281 280 279 278 277 276 275 274 272 271 269 267 265 263 260 256 252 250 248 245 243 241 241 240 238 235 234 235 236 236 237 238 238 237 236 235 235 233 232 231 232 232 232 232 231 232 232 232 232 231 231 231 231 231 232 233 234 236 237 237 237 237 238 238 239 240 242 244 247 248 248 248 250 252 252 253 254 252 252 254 252 247 247 248 246 245 245
283 282 281 279 278 277 276 275 273 272 270 268 266 264 262 259 256 252 249 247 245 241 238 238 239 238 236 234 234 235 236 237 237 237 237 236 234 233 232 231 230 230 230 229 228 228 228 228 229 230 230 230 232 232 232 231 231 232 233 233 234 235 236 237 238 240 243 244 245 246 246 247 247 249 251 250 250 252 251 249 250 248 244 242 243 243 241 242
285 284 282 281 279 278 276 275 273 272 270 267 265 263 261 259 256 251 248 245 244 240 236 236 237 237 236 234 232 231 232 234 236 236 235 235 233 232 231 231 230 230 230 228 226 226 224 225 227 228 228 228 230 231 231 231 232 231 231 232 234 235 236 237 238 241 243 242 243 244 244 245 246 247 249 249 249 250 250 250 250 247 243 238 237 238 237 236
287 286 284 282 280 279 278 276 274 272 270 268 265 262 260 258 255 252 247 244 242 239 236 234 234 235 235 234 232 230 228 230 232 234 234 234 233 232 232 231 231 232 232 231 230 228 226 225 227 228 228 228 229 230 231 231 232 232 231 234 236 236 236 236 237 239 240 240 241 242 243 244 244 244 245 247 246 248 249 250 249 246 241 236 232 233 233 230
290 288 286 283 281 281 279 277 275 273 271 268 266 263 260 257 255 252 248 244 240 238 235 233 232 233 233 233 231 229 227 226 228 231 233 233 232 232 232 232 233 233 233 233 232 232 231 229 228 228 228 228 229 230 231 231 232 232 232 235 238 238 238 238 239 241 242 242 243 244 245 244 243 243 244 246 247 249 250 249 249 246 240 235 231 229 230 228
294 291 287 284 282 281 279 277 275 273 272 270 267 265 262 258 255 251 248 244 240 236 234 232 230 231 231 231 230 229 226 225 226 228 230 231 231 230 230 230 232 233 233 232 231 231 231 230 229 229 228 229 230 229 229 229 230 230 230 231 234 235 236 236 238 241 242 242 243 243 243 243 243 243 243 245 246 248 249 247 245 245 239 232 229 227 228 226
298 294 292 289 286 284 281 279 276 273 271 270 268 266 264 261 257 252 247 243 240 236 233 230 229 229 229 229 229 228 226 225 225 225 227 229 229 229 228 228 229 231 232 232 231 230 230 230 230 231 231 231 231 228 226 227 228 227 226 227 229 231 232 232 234 238 239 238 239 239 240 241 241 240 239 240 241 242 243 241 239 240 236 227 225 225 226 227
302 299 297 294 290 288 286 283 280 276 272 270 269 267 265 262 259 255 249 244 239 235 232 229 227 227 228 228 227 227 226 224 224 224 224 226 228 228 228 227 227 229 230 231 232 232 232 231 230 232 232 232 231 229 227 227 228 227 227 226 228 231 233 231 231 234 236 235 235 237 238 240 240 237 235 235 235 236 238 238 235 237 233 224 221 221 223 226
306 303 301 297 293 291 287 284 281 279 275 273 271 269 266 263 260 256 251 245 240 235 231 229 227 225 226 227 226 225 225 223 223 224 223 224 226 227 228 226 225 226 227 228 229 230 230 230 229 230 231 230 230 230 228 228 230 231 230 230 230 231 233 233 231 234 236 235 236 236 236 239 238 235 233 233 232 232 236 238 236 236 234 225 220 220 221 225
313 310 307 304 301 297 292 288 284 280 277 275 274 272 269 265 260 256 251 245 240 236 231 227 225 224 224 225 225 224 224 223 222 223 222 222 224 225 227 227 224 224 224 225 226 226 227 229 230 230 231 229 229 229 229 229 233 234 233 231 231 231 232 233 233 234 237 237 237 236 236 238 237 235 234 233 232 232 236 239 237 236 235 228 222 221 222 225
318 315 312 310 308 305 301 297 292 286 282 278 276 274 271 268 262 257 252 245 239 236 232 227 224 223 223 223 223 223 224 223 222 221 221 221 222 222 224 226 224 222 222 223 223 224 224 226 228 230 232 231 230 230 229 227 229 231 231 230 230 230 231 232 233 234 235 236 236 235 236 238 237 236 236 235 233 232 234 238 238 236 236 231 224 222 223 225
324 321 318 315 312 310 306 302 298 294 290 285 280 277 273 269 264 258 252 245 238 235 232 227 223 223 222 222 222 222 223 223 221 220 220 220 221 221 221 224 224 222 221 221 221 222 223 224 224 226 230 230 230 230 228 226 225 226 226 226 227 229 231 231 233 234 233 233 233 232 235 237 235 236 238 235 232 230 231 237 238 235 235 232 226 223 223 224
334 331 328 324 320 316 312 308 304 300 296 291 286 281 275 270 265 259 252 245 238 234 231 227 224 222 221 222 222 221 222 222 220 219 219 219 219 219 219 221 223 221 219 219 220 220 221 223 223 223 226 228 229 229 229 227 226 226 226 224 223 226 228 228 230 232 232 231 232 232 235 236 233 234 237 234 230 227 226 232 236 233 232 231 228 225 223 223
342 339 336 333 329 325 320 315 311 307 302 297 291 285 279 273 267 260 252 244 238 233 230 226 223 221 220 221 222 221 221 221 220 218 219 219 219 218 217 218 220 221 219 218 218 218 219 222 223 222 223 225 228 230 230 229 228 229 230 228 225 224 226 225 226 229 230 230 230 230 234 235 232 234 236 233 229 226 224 228 231 230 230 230 227 225 223 223
349 346 343 340 338 334 328 322 318 314 310 305 297 290 283 276 269 260 251 243 236 233 230 225 222 221 220 220 221 220 220 220 219 218 218 219 219 217 215 215 218 219 218 216 215 216 217 220 222 221 221 223 226 229 230 229 228 228 229 230 228 226 226 225 225 226 228 229 229 229 231 233 232 233 235 234 230 226 224 226 226 227 229 230 227 226 224 223
352 352 350 348 345 342 336 330 326 321 317 312 305 297 288 281 273 261 250 242 236 232 230 226 222 221 220 219 220 220 219 219 219 218 217 218 219 217 214 213 216 217 217 215 214 213 215 218 220 219 219 221 223 225 227 227 227 226 227 229 230 228 227 227 227 227 228 229 230 229 230 232 231 232 234 234 230 225 223 224 224 225 229 229 227 226 225 225
354 354 354 353 351 348 344 338 333 329 323 319 312 305 295 286 277 264 250 242 236 232 230 228 223 221 220 219 219 219 218 217 218 217 216 218 219 217 213 212 213 215 216 215 213 211 212 215 218 217 216 219 221 222 224 225 224 224 226 226 228 227 226 225 225 227 228 229 230 230 231 230 229 230 232 233 230 224 220 222 224 226 228 229 227 226 225 225
Height
10955 10956 10956 10957 10957 10958 10959 10960 10961 10961 10962 10963 10964 10965 10965 10966 10967 10968 10969 10969 10970 10971 10972 10973 10973 10974 10974 10974 10974 10974 10975 10975 10975 10975 10974 10974 10974 10973 10974 10975 10976 10977 10978 10980 10982 10983 10985 10986 10988 10989 10990 10992 10993 10994 10995 10996 10998 11000 11002 11003 11004 11006 11007 11007 11007 11009 11009 11011 11012 11012 11012 11012 11011 11011 11010 11008 11009 11008 11007 11006 11004 11003 11001 11001 11001 11000 10999 10997
10952 10953 10953 10953 10954 10955 10956 10957 10957 10958 10959 10960 10961 10962 10963 10963 10964 10965 10966 10967 10968 10969 10970 10971 10971 10972 10973 10973 10973 10973 10973 10974 10974 10974 10974 10974 10973 10973 10973 10973 10973 10975 10976 10977 10979 10980 10982 10983 10984 10985 10987 10989 10990 10990 10992 10994 10995 10997 10999 11001 11002 11004 11004 11004 11006 11006 11007 11009 11010 11010 11010 11010 11009 11009 11009 11007 11007 11006 11005 11004 11003 11002 11000 11000 10999 10999 10998 10997
10949 10949 10950 10950 10951 10952 10952 10953 10954 10954 10955 10956 10957 10958 10959 10961 10962 10963 10964 10965 10966 10967 10967 10968 10969 10970 10970 10971 10971 10971 10972 10972 10973 10973 10973 10973 10973 10972 10972 10972 10972 10972 10973 10974 10976 10977 10979 10980 10981 10982 10984 10985 10986 10987 10989 10990 10992 10993 10996 10999 11000 11002 11002 11003 11004 11004 11005 11006 11007 11007 11008 11009 11008 11007 11008 11008 11005 11003 11003 11002 11001 11000 10999 10999 10999 10998 10998 10996
10945 10945 10946 10946 10947 10948 10949 10949 10950 10951 10951 10953 10954 10955 10956 10957 10958 10960 10961 10962 10963 10964 10965 10965 10966 10967 10968 10969 10969 10969 10970 10970 10971 10972 10971 10971 10972 10972 10972 10971 10971 10971 10971 10972 10973 10974 10975 10977 10978 10979 10981 10982 10983 10985 10986 10988 10990 10991 10993 10996 10999 11000 11001 11001 11002 11003 11003 11003 11005 11005 11006 11007 11006 11006 11007 11007 11005 11002 11002 11001 11000 10999 10998 10998 10998 10998 10997 10995
10941 10941 10941 10942 10943 10944 10944 10945 10946 10946 10947 10949 10950 10951 10952 10953 10955 10956 10957 10959 10960 10961 10962 10962 10963 10965 10965 10966 10967 10967 10967 10968 10969 10969 10969 10970 10971 10971 10971 10971 10970 10970 10970 10970 10971 10971 10973 10974 10975 10976 10978 10979 10981 10982 10984 10987 10989 10989 10990 10993 10996 10997 10998 10999 11000 11000 11001 11001 11002 11004 11005 11005 11005 11005 11005 11005 11004 11002 11001 11001 10999 10998 10997 10997 10997 10996 10995 10994
10936 10936 10937 10937 10938 10939 10940 10940 10941 10942 10943 10944 10945 10947 10948 10949 10950 10952 10953 10955 10957 10958 10959 10959 10960 10961 10962 10963 10964 10964 10965 10966 10966 10966 10968 10969 10969 10969 10970 10970 10970 10970 10969 10969 10969 10969 10970 10971 10972 10973 10975 10976 10977 10979 10982 10984 10985 10986 10987 10991 10993 10994 10995 10997 10998 10998 10999 10999 11000 11002 11003 11003 11004 11005 11005 11005 11003 11001 11001 11000 10999 10998 10997 10996 10996 10995 10994 10993
10931 10931 10932 10932 10933 10934 10935 10935 10936 10937 10938 10939 10940 10942 10943 10944 10946 10947 10949 10950 10952 10954 10955 10956 10956 10958 10959 10959 10960 10961 10962 10963 10963 10965 10966 10966 10966 10968 10968 10968 10969 10968 10969 10969 10968 10968 10968 10969 10970 10971 10972 10973 10975 10977 10979 10980 10982 10983 10985 10987 10989 10990 10992 10994 10995 10995 10995 10997 10998 10999 11001 11002 11002 11002 11003 11003 11001 11000 11000 10999 10999 10998 10997 10996 10995 10994 10993 10992
10926 10926 10927 10927 10928 10929 10929 10930 10931 10932 10933 10934 10935 10937 10938 10939 10940 10942 10944 10946 10948 10949 10951 10952 10952 10954 10955 10956 10956 10958 10958 10959 10961 10963 10963 10963 10964 10965 10966 10967 10967 10967 10968 10968 10968 10968 10967 10967 10968 10969 10970 10971 10972 10974 10976 10977 10979 10980 10982 10984 10986 10987 10989 10992 10993 10992 10992 10994 10996 10998 10999 11000 11001 11000 11001 11001 11000 10999 10999 10998 10998 10997 10996 10996 10994 10994 10993 10992
10921 10921 10921 10922 10922 10923 10924 10925 10926 10927 10928 10929 10930 10931 10933 10934 10935 10937 10939 10941 10942 10944 10946 10947 10948 10950 10951 10951 10952 10954 10955 10956 10959 10959 10959 10961 10961 10962 10963 10964 10965 10965 10966 10966 10967 10967 10967 10967 10967 10968 10969 10969 10970 10971 10973 10974 10976 10977 10979 10981 10983 10985 10986 10989 10991 10990 10989 10991 10994 10996 10997 10998 11000 11000 11000 11000 10999 10998 10998 10998 10997 10997 10996 10995 10994 10994 10993 10991
10915 10915 10915 10915 10916 10917 10918 10919 10920 10921 10922 10923 10924 10925 10927 10929 10930 10932 10933 10935 10937 10939 10941 10942 10944 10945 10946 10947 10947 10951 10951 10951 10954 10954 10955 10957 10958 10959 10960 10961 10962 10963 10964 10964 10965 10965 10966 10967 10967 10967 10967 10967 10968 10970 10971 10973 10974 10975 10976 10978 10980 10982 10983 10985 10988 10988 10988 10989 10992 10994 10995 10997 10998 10999 10999 11000 10999 10998 10998 10997 10997 10996 10996 10995 10995 10994 10993 10991
10908 10909 10909 10909 10910 10911 10911 10912 10913 10914 10916 10917 10918 10920 10921 10923 10925 10926 10928 10930 10931 10934 10936 10937 10939 10940 10942 10941 10943 10948 10946 10945 10949 10951 10951 10953 10955 10955 10956 10957 10959 10960 10962 10962 10963 10964 10965 10965 10966 10966 10966 10966 10968 10969 10970 10971 10972 10973 10974 10976 10978 10979 10980 10983 10985 10986 10987 10988 10990 10992 10994 10995 10996 10997 10998 10999 10998 10997 10997 10997 10996 10996 10995 10995 10995 10994 10992 10991
10901 10902 10902 10902 10903 10904 10905 10905 10906 10908 10909 10910 10911 10913 10915 10917 10919 10920 10922 10924 10925 10928 10930 10932 10934 10935 10937 10935 10939 10944 10940 10939 10944 10947 10948 10949 10950 10951 10952 10953 10955 10957 10958 10960 10961 10961 10963 10964 10964 10964 10964 10966 10967 10967 10968 10970 10970 10972 10973 10974 10976 10977 10979 10981 10983 10984 10986 10987 10989 10990 10992 10993 10995 10996 10997 10997 10997 10997 10996 10996 10995 10995 10995 10995 10995 10994 10993 10991
10894 10895 10895 10895 10895 10896 10897 10898 10899 10900 10901 10903 10904 10905 10907 10910 10913 10914 10916 10918 10920 10922 10924 10927 10928 10930 10931 10929 10935 10939 10935 10936 10939 10942 10943 10944 10946 10947 10948 10950 10951 10953 10954 10956 10958 10959 10960 10962 10962 10962 10964 10965 10965 10966 10967 10968 10969 10970 10972 10973 10974 10976 10977 10979 10981 10983 10984 10986 10987 10988 10990 10992 10993 10994 10995 10996 10996 10996 10996 10996 10995 10995 10995 10995 10995 10994 10993 10992
10887 10887 10887 10888 10888 10889 10889 10890 10891 10892 10894 10895 10896 10898 10899 10902 10905 10907 10909 10911 10913 10916 10918 10921 10922 10925 10924 10923 10930 10933 10930 10931 10933 10936 10939 10939 10941 10942 10943 10946 10947 10949 10951 10952 10955 10956 10957 10959 10960 10961 10962 10963 10963 10965 10966 10967 10968 10969 10971 10972 10973 10974 10976 10978 10979 10981 10982 10983 10985 10987 10988 10990 10991 10992 10993 10995 10995 10995 10995 10995 10995 10994 10994 10994 10994 10994 10993 10992
10879 10879 10880 10880 10880 10881 10882 10882 10883 10884 10886 10887 10888 10890 10891 10894 10898 10900 10901 10904 10906 10908 10911 10915 10916 10919 10918 10917 10924 10927 10924 10926 10927 10931 10935 10935 10936 10937 10938 10941 10942 10944 10946 10948 10950 10952 10954 10956 10957 10958 10959 10960 10962 10964 10964 10965 10967 10968 10969 10970 10971 10973 10975 10976 10977 10978 10980 10982 10983 10985 10986 10988 10989 10990 10991 10993 10994 10994 10994 10994 10994 10994 10994 10994 10994 10994 10993 10992
10871 10871 10871 10872 10872 10873 10874 10874 10875 10876 10877 10879 10881 10882 10883 10886 10889 10892 10894 10896 10898 10901 10904 10908 10910 10912 10911 10911 10917 10920 10919 10920 10922 10926 10929 10929 10930 10931 10933 10935 10937 10939 10941 10944 10946 10948 10951 10952 10953 10954 10956 10958 10960 10961 10962 10964 10965 10966 10966 10967 10969 10971 10973 10974 10975 10976 10978 10980 10981 10983 10985 10986 10987 10988 10989 10991 10992 10992 10992 10992 10993 10993 10993 10993 10993 10993 10993 10993
10862 10862 10862 10863 10863 10864 10865 10866 10866 10867 10868 10870 10872 10873 10875 10877 10881 10884 10885 10888 10890 10893 10897 10900 10903 10905 10905 10905 10909 10913 10914 10913 10915 10919 10920 10923 10925 10926 10928 10930 10932 10935 10937 10939 10942 10943 10946 10948 10950 10951 10953 10955 10956 10958 10960 10961 10961 10962 10963 10965 10967 10969 10971 10972 10973 10975 10976 10978 10979 10981 10983 10984 10985 10985 10987 10988 10989 10990 10991 10991 10992 10992 10992 10992 10992 10993 10993 10993
10852 10852 10852 10853 10854 10854 10855 10857 10857 10858 10859 10860 10862 10865 10866 10868 10872 10876 10877 10879 10882 10885 10889 10893 10896 10897 10896 10898 10900 10904 10907 10907 10908 10911 10914 10917 10919 10921 10923 10924 10927 10929 10932 10935 10936 10939 10941 10943 10946 10948 10949 10951 10952 10954 10954 10955 10956 10958 10960 10962 10965 10967 10969 10970 10971 10973 10974 10976 10977 10979 10981 10982 10983 10983 10984 10986 10987 10988 10989 10990 10991 10991 10991 10992 10992 10993 10993 10993
10842 10842 10842 10843 10844 10844 10845 10847 10847 10848 10850 10851 10853 10855 10858 10859 10863 10867 10868 10869 10874 10877 10881 10885 10888 10888 10888 10889 10891 10896 10900 10902 10903 10904 10907 10910 10913 10917 10917 10919 10922 10924 10927 10929 10930 10933 10936 10939 10942 10944 10944 10944 10946 10947 10947 10949 10953 10957 10958 10961 10964 10966 10967 10968 10970 10971 10972 10974 10975 10977 10978 10979 10980 10981 10982 10983 10985 10986 10987 10989 10990 10990 10991 10991 10992 10992 10993 10993
10831 10831 10831 10831 10832 10833 10833 10836 10837 10838 10839 10841 10842 10844 10848 10850 10852 10858 10861 10860 10864 10868 10871 10877 10880 10878 10879 10880 10882 10887 10891 10895 10898 10897 10898 10902 10906 10911 10913 10914 10916 10920 10921 10922 10924 10928 10932 10937 10938 10936 10935 10937 10940 10942 10943 10947 10952 10955 10957 10959 10962 10963 10965 10966 10967 10969 10970 10971 10972 10974 10975 10977 10978 10978 10979 10981 10983 10984 10985 10987 10989 10989 10989 10990 10991 10991 10992 10993
10819 10819 10819 10819 10820 10820 10821 10823 10825 10826 10828 10830 10832 10833 10836 10840 10842 10847 10852 10852 10853 10857 10862 10866 10871 10871 10867 10869 10873 10875 10881 10888 10889 10890 10890 10893 10898 10904 10907 10907 10910 10913 10913 10914 10919 10924 10929 10932 10928 10926 10929 10933 10936 10939 10941 10944 10948 10952 10954 10956 10958 10960 10962 10962 10964 10966 10967 10968 10969 10971 10973 10974 10976 10976 10977 10979 10981 10982 10983 10985 10987 10988 10988 10988 10990 10990 10991 10991
10806 10806 10806 10806 10807 10808 10807 10810 10812 10813 10815 10817 10821 10822 10823 10828 10831 10835 10843 10845 10841 10844 10853 10854 10859 10863 10853 10855 10865 10865 10872 10880 10879 10881 10883 10885 10891 10897 10899 10901 10904 10904 10905 10911 10916 10920 10925 10921 10916 10920 10926 10929 10932 10935 10937 10940 10943 10947 10950 10952 10954 10956 10957 10959 10961 10963 10964 10965 10965 10968 10970 10971 10973 10975 10975 10977 10979 10980 10980 10983 10985 10987 10987 10987 10988 10990 10990 10990
10792 10792 10793 10792 10793 10795 10794 10795 10798 10800 10802 10803 10807 10809 10811 10814 10819 10824 10831 10838 10832 10828 10840 10844 10845 10851 10843 10841 10851 10857 10864 10868 10868 10872 10875 10879 10883 10886 10890 10894 10896 10896 10900 10908 10911 10914 10915 10908 10909 10919 10922 10924 10928 10930 10933 10935 10939 10943 10946 10948 10949 10951 10952 10954 10956 10958 10960 10961 10961 10964 10966 10967 10970 10973 10973 10974 10976 10978 10978 10980 10983 10985 10985 10986 10987 10988 10989 10989
10779 10778 10779 10778 10779 10780 10781 10781 10782 10785 10788 10790 10792 10794 10799 10801 10806 10812 10817 10827 10825 10813 10821 10833 10834 10835 10830 10825 10835 10852 10858 10856 10859 10863 10867 10873 10873 10875 10883 10885 10886 10891 10897 10901 10903 10907 10905 10900 10908 10916 10918 10921 10923 10926 10929 10932 10935 10938 10941 10943 10943 10944 10947 10948 10950 10952 10955 10958 10958 10960 10963 10964 10967 10971 10971 10971 10973 10976 10977 10977 10979 10982 10983 10984 10985 10986 10987 10988
10764 10764 10764 10763 10763 10764 10767 10766 10767 10770 10773 10776 10778 10780 10784 10787 10792 10799 10804 10812 10813 10801 10803 10815 10820 10818 10814 10816 10830 10844 10847 10846 10850 10853 10857 10862 10862 10865 10873 10876 10878 10885 10891 10891 10894 10900 10896 10896 10905 10911 10912 10915 10917 10921 10924 10926 10928 10931 10935 10937 10935 10937 10941 10943 10946 10948 10951 10955 10955 10956 10959 10961 10963 10966 10969 10969 10970 10973 10976 10976 10976 10978 10981 10982 10983 10984 10985 10986
10749 10748 10748 10748 10747 10747 10750 10751 10751 10755 10757 10759 10764 10766 10770 10774 10778 10784 10793 10797 10794 10790 10789 10793 10802 10804 10802 10809 10820 10826 10833 10841 10840 10838 10846 10852 10853 10856 10861 10868 10873 10876 10881 10881 10886 10893 10891 10892 10900 10904 10905 10908 10912 10916 10918 10919 10922 10925 10928 10929 10927 10931 10936 10938 10941 10944 10947 10951 10952 10952 10955 10957 10959 10962 10965 10967 10968 10971 10973 10974 10974 10975 10977 10980 10981 10982 10983 10985
10734 10733 10732 10733 10732 10731 10732 10734 10736 10738 10741 10743 10747 10752 10755 10760 10764 10769 10778 10779 10773 10775 10776 10775 10782 10789 10794 10799 10804 10814 10828 10833 10825 10824 10836 10840 10841 10846 10852 10860 10864 10866 10869 10871 10881 10889 10884 10885 10893 10895 10896 10902 10908 10910 10909 10911 10916 10919 10919 10921 10922 10925 10930 10933 10936 10941 10944 10946 10948 10950 10952 10954 10956 10958 10960 10963 10966 10968 10970 10971 10971 10971 10973 10978 10980 10980 10981 10982
10719 10717 10716 10716 10718 10718 10717 10717 10719 10721 10724 10727 10731 10736 10739 10744 10750 10755 10761 10758 10752 10755 10760 10763 10767 10775 10787 10793 10795 10806 10817 10818 10813 10814 10822 10827 10830 10836 10842 10849 10853 10854 10856 10863 10877 10877 10870 10875 10883 10885 10889 10898 10901 10900 10900 10905 10911 10912 10910 10914 10918 10919 10924 10927 10932 10938 10940 10941 10946 10948 10949 10950 10954 10954 10954 10957 10962 10965 10968 10968 10968 10968 10969 10974 10978 10979 10979 10980
10704 10702 10701 10700 10701 10704 10703 10703 10704 10703 10706 10711 10714 10718 10721 10727 10733 10739 10742 10736 10730 10736 10745 10754 10760 10765 10776 10784 10787 10791 10798 10806 10806 10803 10806 10816 10822 10827 10833 10838 10839 10841 10845 10856 10867 10862 10860 10870 10874 10876 10885 10892 10893 10891 10894 10901 10906 10904 10903 10908 10911 10914 10919 10922 10928 10933 10935 10939 10943 10944 10945 10946 10949 10950 10948 10952 10957 10959 10963 10965 10966 10966 10965 10968 10975 10977 10978 10978
10690 10688 10687 10685 10685 10686 10688 10689 10689 10688 10689 10693 10696 10699 10704 10710 10716 10719 10722 10716 10708 10717 10731 10743 10752 10756 10760 10769 10777 10780 10785 10792 10795 10792 10795 10804 10810 10814 10820 10822 10824 10832 10839 10847 10856 10855 10855 10860 10864 10872 10881 10884 10884 10884 10889 10896 10898 10896 10897 10902 10906 10910 10914 10917 10923 10927 10931 10938 10940 10938 10938 10940 10944 10945 10944 10947 10951 10951 10955 10962 10966 10966 10963 10963 10970 10975 10976 10977
10676 10673 10672 10671 10670 10669 10670 10671 10672 10673 10674 10676 10677 10681 10685 10690 10697 10700 10701 10696 10689 10698 10719 10734 10742 10746 10748 10757 10765 10769 10771 10775 10779 10782 10784 10789 10796 10802 10805 10810 10817 10825 10831 10839 10849 10848 10844 10850 10861 10868 10872 10875 10877 10879 10884 10889 10890 10891 10893 10897 10902 10906 10908 10913 10917 10921 10929 10935 10933 10929 10928 10932 10940 10941 10939 10942 10944 10944 10948 10956 10963 10965 10962 10959 10965 10971 10973 10974
10661 10658 10656 10655 10654 10652 10651 10652 10653 10655 10657 10659 10660 10662 10666 10670 10677 10681 10680 10677 10676 10687 10710 10727 10733 10735 10740 10745 10748 10751 10755 10757 10759 10766 10769 10773 10782 10790 10795 10801 10807 10814 10824 10834 10837 10833 10834 10844 10854 10857 10860 10866 10871 10873 10877 10882 10885 10887 10889 10893 10897 10900 10904 10909 10912 10917 10925 10927 10922 10918 10917 10926 10935 10935 10936 10937 10937 10939 10941 10946 10956 10964 10962 10957 10960 10966 10969 10972
10646 10642 10639 10638 10637 10635 10634 10632 10633 10635 10636 10639 10640 10642 10647 10651 10656 10661 10661 10662 10670 10682 10698 10711 10719 10722 10725 10728 10730 10732 10735 10736 10739 10745 10751 10755 10765 10776 10784 10788 10792 10801 10814 10817 10813 10817 10826 10831 10837 10846 10855 10861 10864 10866 10870 10875 10878 10879 10882 10886 10889 10893 10898 10902 10905 10910 10915 10915 10911 10908 10912 10924 10931 10931 10931 10929 10930 10935 10937 10939 10949 10961 10964 10957 10957 10962 10966 10969
10631 10626 10621 10620 10619 10617 10616 10614 10614 10615 10615 10617 10619 10621 10625 10630 10637 10643 10644 10648 10659 10670 10679 10689 10698 10701 10705 10708 10707 10705 10708 10715 10719 10724 10732 10740 10750 10762 10771 10776 10782 10792 10798 10796 10797 10809 10816 10818 10830 10844 10848 10849 10851 10856 10859 10863 10865 10867 10871 10874 10878 10884 10890 10893 10896 10900 10903 10903 10902 10903 10911 10922 10926 10923 10920 10920 10926 10933 10936 10936 10941 10955 10962 10957 10957 10960 10962 10966
10616 10611 10604 10601 10599 10598 10597 10596 10595 10595 10597 10597 10597 10600 10604 10609 10618 10626 10628 10631 10641 10651 10661 10668 10671 10674 10682 10683 10674 10675 10689 10699 10702 10710 10722 10732 10741 10752 10761 10766 10770 10775 10777 10779 10791 10803 10806 10813 10826 10830 10828 10831 10837 10842 10845 10849 10854 10858 10861 10866 10875 10881 10883 10885 10888 10890 10891 10894 10897 10903 10911 10917 10917 10913 10911 10917 10924 10929 10933 10933 10935 10949 10957 10955 10957 10958 10957 10961
10600 10595 10589 10582 10579 10578 10577 10577 10576 10576 10577 10577 10577 10580 10583 10588 10598 10606 10610 10612 10620 10633 10644 10646 10644 10649 10658 10658 10653 10666 10685 10691 10691 10702 10714 10724 10733 10741 10746 10751 10754 10757 10760 10769 10782 10789 10793 10804 10811 10809 10813 10821 10826 10830 10834 10839 10845 10849 10854 10865 10872 10870 10870 10876 10880 10880 10883 10891 10897 10902 10907 10908 10909 10909 10908 10914 10919 10922 10927 10929 10930 10941 10949 10950 10955 10955 10953 10955
10581 10578 10573 10565 10560 10560 10559 10558 10557 10557 10557 10558 10559 10561 10563 10568 10576 10585 10590 10593 10599 10613 10625 10624 10623 10629 10637 10641 10647 10664 10678 10678 10681 10692 10699 10705 10712 10717 10723 10731 10734 10734 10738 10749 10759 10766 10777 10790 10791 10792 10804 10815 10817 10819 10823 10829 10836 10843 10851 10859 10858 10855 10862 10871 10873 10874 10881 10890 10895 10897 10899 10900 10904 10905 10903 10907 10914 10916 10919 10923 10926 10934 10941 10945 10949 10950 10950 10949
10564 10561 10557 10548 10542 10543 10542 10540 10540 10538 10538 10539 10540 10542 10544 10548 10555 10563 10571 10575 10579 10592 10604 10605 10605 10611 10618 10625 10637 10650 10659 10661 10667 10674 10676 10679 10688 10697 10705 10711 10712 10711 10716 10727 10737 10747 10764 10774 10773 10781 10797 10806 10805 10805 10811 10821 10832 10841 10848 10847 10845 10851 10861 10867 10868 10872 10879 10885 10887 10888 10891 10894 10898 10899 10896 10902 10909 10910 10912 10917 10921 10928 10934 10940 10943 10944 10946 10945
10549 10546 10543 10533 10526 10527 10526 10524 10524 10522 10520 10520 10522 10525 10527 10531 10536 10542 10550 10557 10561 10572 10583 10587 10590 10595 10599 10608 10620 10630 10639 10645 10650 10653 10654 10660 10672 10685 10694 10699 10701 10704 10712 10725 10737 10747 10759 10766 10769 10780 10793 10794 10791 10794 10807 10822 10831 10837 10839 10837 10841 10850 10857 10860 10864 10868 10872 10877 10879 10881 10885 10889 10892 10891 10891 10897 10903 10904 10907 10912 10916 10921 10928 10934 10937 10938 10940 10941
10535 10531 10529 10521 10514 10514 10512 10510 10510 10508 10505 10504 10505 10507 10511 10515 10519 10523 10530 10538 10544 10553 10562 10568 10575 10577 10579 10591 10602 10609 10620 10628 10631 10634 10637 10645 10658 10672 10684 10692 10696 10702 10711 10726 10741 10750 10757 10764 10768 10775 10780 10778 10779 10794 10812 10823 10827 10830 10834 10835 10839 10846 10851 10855 10860 10863 10867 10871 10874 10876 10880 10883 10883 10884 10888 10894 10898 10900 10903 10907 10911 10914 10921 10928 10932 10932 10933 10934
10521 10518 10515 10510 10504 10503 10501 10498 10497 10495 10491 10490 10491 10492 10495 10499 10503 10507 10513 10520 10527 10535 10542 10549 10556 10558 10563 10573 10580 10589 10604 10613 10614 10618 10622 10628 10641 10656 10669 10679 10684 10692 10705 10719 10731 10739 10746 10754 10761 10764 10765 10766 10779 10799 10811 10813 10815 10820 10824 10827 10831 10836 10842 10849 10856 10859 10861 10865 10867 10870 10873 10873 10875 10880 10886 10890 10894 10896 10897 10901 10905 10907 10913 10923 10926 10926 10925 10926
10506 10504 10504 10499 10494 10492 10490 10487 10485 10485 10481 10478 10478 10479 10481 10485 10488 10492 10497 10503 10510 10517 10523 10529 10536 10542 10548 10555 10563 10574 10589 10596 10597 10600 10604 10612 10626 10642 10653 10663 10672 10682 10695 10708 10719 10728 10738 10749 10757 10757 10757 10767 10783 10795 10799 10799 10802 10805 10809 10815 10821 10826 10833 10844 10852 10851 10852 10856 10859 10861 10864 10866 10869 10875 10882 10886 10889 10890 10889 10893 10898 10899 10906 10915 10919 10919 10918 10918
10494 10492 10492 10489 10484 10482 10480 10476 10474 10473 10471 10469 10468 10468 10470 10472 10475 10478 10483 10489 10494 10499 10505 10511 10519 10527 10532 10538 10550 10560 10568 10575 10576 10579 10590 10604 10617 10629 10638 10651 10663 10672 10688 10704 10713 10725 10738 10747 10751 10750 10753 10768 10778 10782 10787 10789 10787 10792 10801 10811 10819 10824 10831 10840 10844 10841 10842 10848 10851 10854 10858 10860 10862 10870 10877 10881 10882 10882 10882 10886 10891 10893 10899 10908 10911 10912 10910 10911
10486 10481 10480 10479 10476 10474 10471 10468 10465 10462 10460 10459 10458 10458 10460 10462 10464 10466 10469 10475 10480 10484 10490 10497 10504 10512 10517 10523 10534 10540 10545 10554 10557 10565 10586 10600 10607 10617 10627 10640 10653 10665 10681 10695 10700 10713 10726 10731 10736 10738 10744 10759 10765 10768 10777 10780 10779 10790 10804 10813 10819 10824 10826 10831 10834 10833 10836 10842 10846 10850 10853 10853 10857 10866 10872 10872 10874 10877 10878 10881 10886 10888 10893 10901 10905 10905 10903 10904
10482 10475 10470 10467 10467 10465 10462 10459 10457 10454 10452 10450 10449 10450 10450 10452 10454 10456 10458 10463 10468 10471 10477 10483 10489 10495 10500 10507 10515 10521 10527 10536 10544 10559 10580 10589 10595 10607 10617 10628 10643 10657 10671 10679 10684 10697 10709 10715 10725 10731 10736 10749 10756 10759 10770 10779 10783 10791 10801 10808 10812 10815 10817 10821 10827 10829 10833 10839 10842 10846 10847 10847 10854 10862 10863 10864 10870 10875 10877 10877 10880 10883 10888 10896 10901 10900 10897 10899
10479 10473 10466 10460 10457 10456 10453 10451 10448 10446 10445 10443 10441 10442 10442 10442 10444 10446 10448 10453 10457 10460 10464 10470 10475 10478 10484 10491 10499 10506 10513 10521 10535 10553 10569 10575 10583 10596 10606 10616 10631 10646 10657 10664 10671 10686 10697 10704 10716 10725 10731 10742 10751 10756 10766 10775 10777 10780 10788 10797 10802 10805 10808 10814 10820 10825 10830 10833 10836 10840 10841 10843 10851 10855 10855 10859 10867 10873 10873 10871 10873 10879 10883 10889 10895 10894 10892 10894
10474 10470 10464 10458 10452 10449 10446 10444 10442 10439 10438 10436 10434 10434 10433 10433 10435 10436 10439 10443 10446 10449 10452 10457 10462 10466 10472 10479 10485 10494 10501 10510 10526 10544 10554 10561 10571 10583 10595 10606 10618 10632 10644 10652 10665 10679 10688 10694 10704 10713 10719 10729 10740 10746 10752 10758 10761 10767 10777 10787 10793 10798 10803 10810 10817 10821 10824 10826 10830 10834 10834 10838 10846 10847 10847 10856 10864 10868 10868 10865 10869 10877 10878 10880 10886 10887 10887 10889
10468 10464 10460 10455 10450 10445 10441 10438 10436 10433 10431 10429 10428 10426 10425 10426 10427 10428 10430 10433 10436 10439 10441 10446 10451 10456 10462 10467 10472 10481 10488 10497 10516 10533 10541 10550 10559 10571 10586 10597 10606 10619 10633 10644 10659 10672 10679 10683 10691 10700 10708 10718 10728 10733 10737 10747 10757 10762 10769 10778 10787 10792 10797 10807 10813 10813 10815 10820 10824 10828 10828 10831 10839 10840 10842 10852 10858 10860 10861 10861 10866 10871 10871 10872 10878 10881 10883 10885
10465 10459 10455 10451 10446 10442 10437 10434 10431 10428 10426 10424 10422 10420 10419 10419 10420 10421 10423 10425 10427 10429 10432 10436 10441 10446 10452 10456 10461 10469 10476 10487 10507 10521 10528 10538 10547 10558 10575 10588 10595 10608 10623 10637 10650 10662 10670 10675 10682 10694 10704 10711 10720 10725 10732 10746 10758 10763 10768 10776 10783 10787 10792 10800 10804 10804 10808 10813 10816 10821 10821 10823 10832 10836 10839 10846 10850 10853 10857 10859 10863 10865 10864 10866 10870 10874 10878 10881
10463 10458 10452 10447 10442 10438 10434 10430 10427 10423 10421 10419 10417 10415 10414 10413 10414 10415 10416 10417 10419 10421 10423 10428 10433 10437 10441 10447 10451 10458 10468 10481 10496 10507 10516 10526 10534 10545 10564 10577 10584 10597 10614 10627 10640 10652 10661 10666 10675 10689 10699 10705 10711 10718 10727 10741 10753 10759 10764 10770 10778 10784 10788 10791 10794 10797 10802 10805 10810 10815 10814 10817 10827 10833 10834 10838 10843 10849 10854 10856 10858 10859 10858 10860 10865 10869 10873 10876
10461 10456 10451 10445 10440 10435 10431 10426 10423 10420 10417 10414 10412 10410 10409 10408 10409 10410 10410 10410 10412 10414 10416 10420 10425 10428 10432 10438 10442 10450 10463 10475 10484 10494 10505 10514 10520 10534 10553 10567 10576 10589 10604 10616 10628 10642 10652 10658 10667 10681 10692 10695 10701 10709 10718 10731 10742 10751 10758 10765 10773 10780 10782 10785 10789 10793 10797 10799 10803 10807 10808 10813 10823 10827 10827 10830 10837 10844 10849 10852 10854 10853 10852 10855 10860 10865 10869 10872
10458 10453 10448 10443 10438 10433 10428 10423 10420 10417 10413 10411 10408 10406 10405 10404 10404 10404 10404 10405 10407 10409 10411 10414 10418 10422 10425 10430 10435 10444 10458 10466 10471 10482 10496 10502 10508 10523 10543 10558 10569 10582 10595 10606 10619 10633 10644 10651 10659 10672 10682 10684 10689 10701 10710 10718 10732 10746 10756 10761 10765 10768 10772 10776 10780 10785 10790 10793 10797 10801 10803 10807 10815 10820 10820 10823 10831 10839 10845 10848 10848 10847 10847 10851 10856 10862 10865 10868